Location: Nitra
(0.0000°N, 18.0833°E)
Time: 10:53:57
(UTC+02:00)

A-11 Canister half - Pass Details

Date: 31 March 2023
Orbit: 1513 x 1686 km, 47.2° (Epoch: 02 June)

Event Time Altitude Azimuth Distance (km) Brightness Sun altitude
Rises 05:41:52 0° 317° (NW) 4,924 11.3 -17.5°
Reaches altitude 10° 05:45:03 10° 316° (NW) 3,928 10.8 -16.7°
Maximum altitude 05:55:09 79° 231° (SW) 1,674 9.1 -14.2°
Drops below altitude 10° 06:04:57 10° 145° (SE) 3,822 11.5 -11.7°
Sets 06:08:01 0° 143° (SE) 4,785 12.1 -11.0°
